Location: Unspecified
(0.0000°N, 0.0000°E)
Time: 20:17:19
(UTC+00:00)

ARIANE 1 DEB - Pass Details

Date: 16 February 2026
Orbit: 376 x 19604 km, 19.8° (Epoch: 20 January)

Event Time Altitude Azimuth Distance (km) Brightness Sun altitude
Exits shadow 04:33:13 - 207° (SSW) 2,677 ? -24.6°
Reaches altitude 10° 04:33:53 10° 200° (SSW) 2,568 ? -24.4°
Maximum altitude 04:38:58 24° 145° (SE) 2,982 ? -23.2°
Drops below altitude 10° 04:54:37 10° 97° (E) 8,266 ? -19.4°
Sets 05:14:53 0° 86° (E) 13,974 ? -14.5°
